QPF
0.05 0.06 0.07 0.08 0.10 0.09 0.06 0.05 0.05 0.04 0.05 0.05 0.06 0.08 0.07 0.05 0.06 0.07 0.06 0.06 0.06 0.05 0.05 0.06 0.07 0.08 0.08 0.06 0.05 0.05 0.06 0.06 0.05 0.05 0.04 0.04 0.04 0.05 0.06 0.08 0.07 0.07 0.07
0.03 0.04 0.05 0.07 0.08 0.06 0.05 0.05 0.04 0.05 0.07 0.06 0.06 0.06 0.05 0.04 0.05 0.07 0.07 0.07 0.07 0.07 0.07 0.08 0.08 0.07 0.06 0.06 0.05 0.05 0.05 0.05 0.06 0.07 0.06 0.05 0.04 0.05 0.06 0.09 0.12 0.10 0.09
0.04 0.03 0.04 0.07 0.11 0.08 0.07 0.06 0.05 0.05 0.06 0.06 0.06 0.05 0.04 0.03 0.03 0.04 0.05 0.06 0.05 0.05 0.07 0.07 0.06 0.05 0.04 0.04 0.04 0.04 0.03 0.04 0.05 0.05 0.07 0.06 0.05 0.05 0.06 0.07 0.08 0.10 0.11
0.06 0.04 0.04 0.04 0.03 0.04 0.04 0.04 0.04 0.04 0.05 0.05 0.06 0.05 0.04 0.03 0.03 0.04 0.04 0.04 0.04 0.04 0.04 0.05 0.05 0.05 0.03 0.03 0.04 0.03 0.03 0.04 0.05 0.06 0.05 0.04 0.04 0.04 0.05 0.06 0.07 0.09 0.10
0.06 0.04 0.03 0.02 0.02 0.03 0.02 0.02 0.03 0.03 0.02 0.03 0.03 0.04 0.04 0.04 0.04 0.04 0.04 0.04 0.03 0.03 0.03 0.03 0.03 0.04 0.04 0.02 0.02 0.02 0.02 0.02 0.03 0.04 0.05 0.05 0.04 0.03 0.03 0.04 0.05 0.07 0.09
0.05 0.03 0.02 0.02 0.01 0.01 0.03 0.03 0.02 0.02 0.01 0.01 0.01 0.02 0.03 0.04 0.04 0.04 0.04 0.03 0.03 0.03 0.04 0.04 0.03 0.03 0.03 0.02 0.01 0.01 0.02 0.02 0.02 0.02 0.03 0.03 0.03 0.03 0.03 0.03 0.04 0.06 0.08
0.05 0.03 0.02 0.01 0.01 0.01 0.02 0.03 0.02 0.02 0.01 0.01 0.01 0.01 0.02 0.02 0.03 0.03 0.03 0.02 0.02 0.02 0.02 0.02 0.02 0.02 0.02 0.01 0.01 0.01 0.01 0.03 0.04 0.03 0.03 0.02 0.02 0.02 0.02 0.03 0.04 0.05 0.06
0.03 0.02 0.01 0.01 0.01 0.01 0.02 0.03 0.02 0.01 0.01 0.01 0.01 0.01 0.01 0.01 0.01 0.01 0.01 0.01 0.01 0.01 0.01 0.01 0.01 0.01 0.00 0.01 0.01 0.01 0.01 0.02 0.03 0.05 0.05 0.04 0.03 0.02 0.02 0.03 0.04 0.05 0.06
0.03 0.02 0.02 0.01 0.01 0.01 0.02 0.02 0.02 0.01 0.01 0.01 0.01 0.01 0.01 0.01 0.01 0.00 0.00 0.00 0.01 0.01 0.01 0.01 0.01 0.01 0.01 0.01 0.01 0.01 0.01 0.01 0.02 0.03 0.05 0.06 0.05 0.04 0.03 0.03 0.04 0.05 0.06
0.05 0.03 0.02 0.02 0.01 0.01 0.02 0.02 0.02 0.02 0.02 0.02 0.01 0.02 0.01 0.01 0.01 0.01 0.01 0.01 0.01 0.01 0.00 0.00 0.00 0.00 0.00 0.00 0.00 0.00 0.00 0.01 0.02 0.02 0.02 0.04 0.07 0.10 0.10 0.08 0.07 0.07 0.07
0.05 0.03 0.03 0.02 0.01 0.01 0.01 0.01 0.01 0.03 0.04 0.02 0.01 0.01 0.01 0.01 0.01 0.01 0.01 0.01 0.01 0.01 0.01 0.00 0.00 0.00 0.00 0.00 0.00 0.00 0.00 0.00 0.01 0.01 0.02 0.02 0.04 0.06 0.09 0.09 0.09 0.09 0.11
0.04 0.03 0.02 0.01 0.01 0.01 0.01 0.01 0.01 0.01 0.02 0.01 0.01 0.01 0.01 0.00 0.00 0.01 0.01 0.01 0.01 0.00 0.00 0.00 0.00 0.00 0.00 0.00 0.00 0.00 0.00 0.00 0.00 0.01 0.01 0.01 0.02 0.03 0.04 0.06 0.07 0.08 0.09
0.04 0.03 0.01 0.01 0.01 0.01 0.01 0.01 0.01 0.01 0.01 0.00 0.00 0.00 0.00 0.00 0.01 0.01 0.00 0.00 0.00 0.00 0.00 0.00 0.00 0.00 0.00 0.00 0.00 0.00 0.00 0.00 0.00 0.01 0.01 0.02 0.02 0.03 0.04 0.05 0.05 0.05 0.06
0.04 0.03 0.02 0.01 0.01 0.01 0.01 0.01 0.01 0.00 0.00 0.00 0.00 0.00 0.00 0.00 0.01 0.01 0.01 0.01 0.00 0.00 0.00 0.00 0.00 0.00 0.00 0.00 0.00 0.00 0.00 0.00 0.00 0.00 0.00 0.01 0.01 0.01 0.02 0.04 0.05 0.06 0.07
0.03 0.03 0.02 0.01 0.02 0.02 0.02 0.01 0.00 0.00 0.00 0.01 0.00 0.00 0.00 0.00 0.01 0.01 0.01 0.01 0.01 0.01 0.01 0.01 0.01 0.01 0.01 0.01 0.00 0.00 0.00 0.00 0.00 0.00 0.00 0.00 0.00 0.00 0.01 0.02 0.04 0.05 0.05
0.04 0.03 0.02 0.02 0.02 0.02 0.02 0.01 0.01 0.01 0.00 0.00 0.01 0.00 0.00 0.01 0.01 0.01 0.01 0.02 0.02 0.02 0.01 0.02 0.02 0.01 0.01 0.02 0.02 0.01 0.01 0.01 0.00 0.00 0.01 0.01 0.01 0.01 0.01 0.01 0.02 0.03 0.04
0.04 0.03 0.02 0.01 0.01 0.01 0.02 0.02 0.02 0.01 0.01 0.01 0.01 0.01 0.01 0.01 0.02 0.01 0.01 0.02 0.02 0.02 0.01 0.02 0.02 0.01 0.01 0.02 0.02 0.01 0.01 0.01 0.01 0.01 0.01 0.02 0.02 0.02 0.01 0.02 0.03 0.03 0.04
0.02 0.02 0.01 0.01 0.00 0.01 0.01 0.02 0.02 0.02 0.01 0.01 0.01 0.01 0.02 0.02 0.01 0.01 0.01 0.01 0.01 0.01 0.01 0.02 0.01 0.01 0.01 0.01 0.01 0.01 0.00 0.01 0.01 0.01 0.01 0.02 0.03 0.03 0.03 0.03 0.04 0.04 0.04
0.01 0.01 0.01 0.01 0.01 0.01 0.01 0.01 0.01 0.01 0.01 0.02 0.02 0.02 0.01 0.01 0.01 0.01 0.01 0.01 0.01 0.01 0.02 0.02 0.02 0.01 0.01 0.02 0.02 0.01 0.01 0.01 0.01 0.01 0.02 0.02 0.02 0.04 0.05 0.05 0.05 0.04 0.04
0.02 0.01 0.01 0.01 0.01 0.01 0.01 0.01 0.02 0.02 0.01 0.02 0.01 0.01 0.01 0.01 0.01 0.01 0.01 0.01 0.01 0.01 0.01 0.01 0.01 0.01 0.01 0.02 0.03 0.02 0.01 0.02 0.02 0.02 0.02 0.03 0.03 0.04 0.05 0.05 0.05 0.05 0.04
0.02 0.01 0.01 0.01 0.02 0.02 0.01 0.01 0.01 0.01 0.00 0.00 0.00 0.00 0.01 0.01 0.01 0.01 0.01 0.01 0.01 0.01 0.01 0.00 0.00 0.01 0.01 0.01 0.05 0.03 0.01 0.02 0.02 0.03 0.03 0.03 0.04 0.05 0.06 0.06 0.05 0.04 0.04
0.01 0.01 0.01 0.01 0.01 0.01 0.00 0.00 0.00 0.00 0.00 0.00 0.00 0.00 0.01 0.01 0.01 0.01 0.01 0.01 0.01 0.01 0.01 0.01 0.00 0.00 0.00 0.01 0.02 0.02 0.01 0.02 0.02 0.02 0.03 0.04 0.05 0.05 0.06 0.06 0.07 0.05 0.04
0.01 0.01 0.01 0.01 0.00 0.00 0.00 0.01 0.00 0.00 0.00 0.00 0.00 0.01 0.01 0.01 0.01 0.01 0.00 0.00 0.00 0.01 0.01 0.01 0.00 0.00 0.00 0.00 0.01 0.01 0.01 0.02 0.02 0.02 0.04 0.05 0.05 0.06 0.06 0.06 0.06 0.06 0.04
0.01 0.01 0.01 0.01 0.01 0.01 0.00 0.00 0.00 0.00 0.00 0.00 0.01 0.01 0.01 0.00 0.01 0.01 0.01 0.00 0.00 0.01 0.01 0.01 0.00 0.00 0.01 0.01 0.01 0.01 0.01 0.01 0.02 0.03 0.05 0.07 0.06 0.05 0.05 0.06 0.05 0.05 0.04
0.01 0.01 0.01 0.01 0.01 0.01 0.01 0.00 0.00 0.00 0.00 0.00 0.00 0.00 0.00 0.00 0.00 0.00 0.01 0.01 0.01 0.01 0.01 0.00 0.01 0.01 0.01 0.02 0.02 0.02 0.02 0.02 0.03 0.04 0.05 0.05 0.04 0.03 0.03 0.04 0.03 0.03 0.02
0.01 0.01 0.01 0.01 0.01 0.01 0.01 0.00 0.00 0.00 0.00 0.00 0.00 0.00 0.00 0.00 0.00 0.00 0.00 0.01 0.01 0.01 0.01 0.01 0.01 0.02 0.02 0.03 0.03 0.02 0.03 0.03 0.03 0.03 0.03 0.03 0.02 0.02 0.02 0.02 0.02 0.01 0.01
MSLP
1018.29 1018.36 1018.45 1018.53 1018.59 1018.63 1018.64 1018.63 1018.61 1018.57 1018.52 1018.44 1018.33 1018.18 1018.00 1017.79 1017.57 1017.36 1017.19 1017.06 1017.01 1017.01 1017.08 1017.21 1017.38 1017.58 1017.79 1018.01 1018.22 1018.43 1018.60 1018.75 1018.86 1018.91 1018.92 1018.88 1018.79 1018.67 1018.55 1018.43 1018.34 1018.30 1018.32
1018.57 1018.77 1018.95 1019.08 1019.15 1019.16 1019.14 1019.09 1019.05 1019.01 1018.99 1018.96 1018.91 1018.81 1018.65 1018.43 1018.15 1017.85 1017.56 1017.30 1017.11 1017.01 1017.00 1017.08 1017.22 1017.41 1017.63 1017.85 1018.05 1018.23 1018.38 1018.50 1018.59 1018.65 1018.68 1018.68 1018.66 1018.62 1018.56 1018.49 1018.43 1018.39 1018.38
1018.72 1019.08 1019.39 1019.61 1019.73 1019.76 1019.72 1019.65 1019.60 1019.57 1019.57 1019.59 1019.59 1019.53 1019.40 1019.17 1018.84 1018.46 1018.06 1017.68 1017.37 1017.16 1017.06 1017.07 1017.17 1017.33 1017.52 1017.71 1017.88 1018.03 1018.14 1018.23 1018.31 1018.38 1018.44 1018.50 1018.55 1018.58 1018.59 1018.59 1018.56 1018.53 1018.49
1018.76 1019.28 1019.75 1020.09 1020.29 1020.36 1020.34 1020.27 1020.21 1020.19 1020.21 1020.25 1020.29 1020.27 1020.15 1019.92 1019.57 1019.13 1018.65 1018.18 1017.77 1017.46 1017.27 1017.21 1017.25 1017.36 1017.51 1017.66 1017.79 1017.89 1017.96 1018.02 1018.08 1018.15 1018.24 1018.35 1018.45 1018.56 1018.63 1018.68 1018.68 1018.66 1018.61
1018.69 1019.40 1020.02 1020.50 1020.80 1020.93 1020.94 1020.88 1020.81 1020.78 1020.81 1020.87 1020.92 1020.92 1020.83 1020.61 1020.25 1019.79 1019.26 1018.73 1018.25 1017.88 1017.62 1017.50 1017.48 1017.54 1017.63 1017.72 1017.80 1017.85 1017.88 1017.90 1017.94 1018.00 1018.10 1018.22 1018.37 1018.51 1018.63 1018.71 1018.75 1018.73 1018.68
1018.60 1019.46 1020.24 1020.84 1021.24 1021.44 1021.47 1021.42 1021.35 1021.31 1021.32 1021.37 1021.42 1021.44 1021.36 1021.15 1020.80 1020.34 1019.81 1019.27 1018.76 1018.35 1018.05 1017.88 1017.81 1017.82 1017.86 1017.90 1017.92 1017.92 1017.90 1017.88 1017.87 1017.91 1017.99 1018.11 1018.26 1018.41 1018.55 1018.66 1018.71 1018.71 1018.68
1018.54 1019.54 1020.43 1021.14 1021.62 1021.87 1021.93 1021.88 1021.79 1021.72 1021.70 1021.72 1021.76 1021.77 1021.70 1021.51 1021.18 1020.75 1020.24 1019.71 1019.21 1018.80 1018.48 1018.29 1018.19 1018.16 1018.15 1018.14 1018.11 1018.05 1017.98 1017.90 1017.85 1017.84 1017.88 1017.97 1018.10 1018.24 1018.38 1018.49 1018.57 1018.61 1018.62
1018.61 1019.68 1020.66 1021.44 1021.97 1022.25 1022.33 1022.27 1022.15 1022.04 1021.97 1021.95 1021.95 1021.94 1021.86 1021.67 1021.38 1020.98 1020.51 1020.02 1019.55 1019.15 1018.85 1018.65 1018.53 1018.47 1018.43 1018.38 1018.30 1018.19 1018.07 1017.94 1017.83 1017.77 1017.75 1017.80 1017.89 1018.01 1018.13 1018.26 1018.37 1018.46 1018.55
1018.86 1019.96 1020.96 1021.76 1022.31 1022.60 1022.68 1022.60 1022.45 1022.29 1022.17 1022.09 1022.04 1021.98 1021.88 1021.69 1021.41 1021.04 1020.61 1020.16 1019.74 1019.38 1019.10 1018.90 1018.78 1018.70 1018.63 1018.54 1018.43 1018.28 1018.12 1017.94 1017.78 1017.67 1017.60 1017.60 1017.64 1017.74 1017.86 1018.00 1018.16 1018.34 1018.53
1019.29 1020.38 1021.36 1022.15 1022.68 1022.96 1023.02 1022.92 1022.73 1022.53 1022.35 1022.20 1022.09 1021.97 1021.82 1021.61 1021.32 1020.97 1020.58 1020.17 1019.79 1019.46 1019.21 1019.02 1018.90 1018.81 1018.72 1018.62 1018.48 1018.31 1018.11 1017.90 1017.71 1017.56 1017.45 1017.41 1017.43 1017.51 1017.64 1017.81 1018.04 1018.31 1018.63
1019.90 1020.93 1021.86 1022.60 1023.09 1023.33 1023.37 1023.24 1023.03 1022.78 1022.55 1022.34 1022.15 1021.96 1021.75 1021.50 1021.20 1020.84 1020.46 1020.08 1019.73 1019.43 1019.20 1019.04 1018.92 1018.82 1018.73 1018.61 1018.46 1018.28 1018.07 1017.86 1017.65 1017.48 1017.36 1017.30 1017.31 1017.39 1017.54 1017.77 1018.06 1018.43 1018.87
1020.60 1021.56 1022.41 1023.07 1023.50 1023.71 1023.72 1023.58 1023.34 1023.07 1022.79 1022.52 1022.27 1022.01 1021.73 1021.43 1021.08 1020.71 1020.33 1019.97 1019.64 1019.37 1019.16 1019.00 1018.89 1018.80 1018.70 1018.59 1018.44 1018.27 1018.07 1017.86 1017.67 1017.50 1017.39 1017.34 1017.36 1017.46 1017.64 1017.91 1018.26 1018.71 1019.25
1021.33 1022.20 1022.94 1023.52 1023.89 1024.05 1024.04 1023.89 1023.65 1023.37 1023.06 1022.75 1022.44 1022.12 1021.78 1021.42 1021.04 1020.64 1020.26 1019.90 1019.59 1019.34 1019.15 1019.01 1018.91 1018.82 1018.74 1018.63 1018.49 1018.33 1018.16 1017.98 1017.81 1017.68 1017.59 1017.57 1017.61 1017.73 1017.94 1018.24 1018.64 1019.14 1019.73
1022.02 1022.77 1023.41 1023.89 1024.20 1024.32 1024.30 1024.15 1023.92 1023.64 1023.33 1023.00 1022.65 1022.28 1021.90 1021.49 1021.08 1020.67 1020.29 1019.94 1019.65 1019.42 1019.26 1019.14 1019.05 1018.97 1018.90 1018.80 1018.68 1018.55 1018.41 1018.26 1018.14 1018.04 1017.99 1017.99 1018.06 1018.20 1018.43 1018.74 1019.15 1019.66 1020.26
1022.60 1023.25 1023.78 1024.17 1024.40 1024.50 1024.46 1024.33 1024.13 1023.87 1023.57 1023.23 1022.87 1022.48 1022.07 1021.65 1021.22 1020.82 1020.45 1020.13 1019.87 1019.67 1019.53 1019.44 1019.36 1019.30 1019.24 1019.16 1019.06 1018.95 1018.83 1018.72 1018.64 1018.58 1018.57 1018.60 1018.69 1018.84 1019.06 1019.36 1019.74 1020.22 1020.77
1023.05 1023.60 1024.03 1024.33 1024.51 1024.57 1024.54 1024.43 1024.25 1024.02 1023.75 1023.43 1023.08 1022.69 1022.28 1021.87 1021.46 1021.08 1020.74 1020.46 1020.25 1020.09 1019.99 1019.92 1019.87 1019.82 1019.76 1019.69 1019.60 1019.51 1019.42 1019.35 1019.29 1019.27 1019.28 1019.33 1019.42 1019.57 1019.77 1020.03 1020.36 1020.77 1021.24
1023.41 1023.85 1024.19 1024.41 1024.54 1024.58 1024.54 1024.45 1024.31 1024.11 1023.88 1023.59 1023.27 1022.91 1022.53 1022.14 1021.77 1021.44 1021.16 1020.93 1020.77 1020.67 1020.60 1020.57 1020.53 1020.49 1020.44 1020.37 1020.29 1020.20 1020.13 1020.07 1020.04 1020.04 1020.06 1020.12 1020.21 1020.33 1020.50 1020.70 1020.97 1021.29 1021.67
1023.69 1024.05 1024.30 1024.46 1024.54 1024.56 1024.53 1024.45 1024.33 1024.18 1023.97 1023.73 1023.44 1023.12 1022.79 1022.46 1022.15 1021.88 1021.67 1021.51 1021.41 1021.36 1021.33 1021.32 1021.30 1021.26 1021.21 1021.13 1021.04 1020.96 1020.89 1020.84 1020.81 1020.82 1020.85 1020.91 1020.99 1021.09 1021.21 1021.36 1021.55 1021.78 1022.07
1023.96 1024.24 1024.42 1024.52 1024.56 1024.56 1024.53 1024.47 1024.37 1024.24 1024.08 1023.87 1023.63 1023.36 1023.08 1022.81 1022.57 1022.38 1022.23 1022.15 1022.11 1022.10 1022.10 1022.11 1022.09 1022.05 1021.99 1021.90 1021.80 1021.71 1021.63 1021.58 1021.56 1021.57 1021.60 1021.65 1021.72 1021.80 1021.88 1021.99 1022.12 1022.28 1022.48
1024.23 1024.44 1024.56 1024.63 1024.64 1024.62 1024.59 1024.53 1024.46 1024.35 1024.21 1024.04 1023.84 1023.62 1023.40 1023.20 1023.02 1022.90 1022.82 1022.79 1022.80 1022.83 1022.86 1022.87 1022.85 1022.80 1022.72 1022.62 1022.51 1022.40 1022.32 1022.26 1022.24 1022.24 1022.28 1022.33 1022.38 1022.45 1022.51 1022.58 1022.67 1022.79 1022.93
1024.49 1024.66 1024.74 1024.77 1024.77 1024.74 1024.71 1024.66 1024.60 1024.51 1024.39 1024.25 1024.09 1023.91 1023.74 1023.59 1023.48 1023.41 1023.39 1023.41 1023.45 1023.50 1023.54 1023.56 1023.54 1023.48 1023.38 1023.26 1023.14 1023.02 1022.93 1022.86 1022.84 1022.84 1022.88 1022.92 1022.98 1023.03 1023.09 1023.15 1023.22 1023.30 1023.41
1024.74 1024.86 1024.92 1024.93 1024.92 1024.90 1024.87 1024.83 1024.77 1024.70 1024.60 1024.48 1024.35 1024.21 1024.09 1023.98 1023.92 1023.89 1023.91 1023.96 1024.03 1024.09 1024.14 1024.15 1024.12 1024.05 1023.95 1023.82 1023.69 1023.56 1023.46 1023.40 1023.37 1023.37 1023.40 1023.45 1023.50 1023.55 1023.61 1023.66 1023.72 1023.80 1023.89
1024.92 1025.01 1025.06 1025.07 1025.06 1025.04 1025.02 1024.99 1024.95 1024.89 1024.81 1024.71 1024.60 1024.50 1024.41 1024.34 1024.31 1024.32 1024.36 1024.43 1024.51 1024.58 1024.63 1024.64 1024.61 1024.54 1024.43 1024.30 1024.17 1024.04 1023.94 1023.87 1023.83 1023.83 1023.85 1023.89 1023.94 1023.99 1024.05 1024.10 1024.16 1024.23 1024.31
1025.00 1025.08 1025.12 1025.14 1025.14 1025.14 1025.13 1025.12 1025.09 1025.05 1024.98 1024.90 1024.82 1024.73 1024.67 1024.63 1024.62 1024.65 1024.71 1024.79 1024.88 1024.96 1025.01 1025.02 1025.00 1024.93 1024.83 1024.71 1024.58 1024.46 1024.36 1024.28 1024.24 1024.22 1024.23 1024.25 1024.29 1024.33 1024.38 1024.43 1024.49 1024.56 1024.63
1024.97 1025.05 1025.09 1025.12 1025.15 1025.17 1025.18 1025.18 1025.17 1025.14 1025.09 1025.03 1024.96 1024.89 1024.85 1024.83 1024.84 1024.88 1024.95 1025.04 1025.13 1025.21 1025.27 1025.30 1025.28 1025.23 1025.15 1025.04 1024.93 1024.81 1024.71 1024.63 1024.57 1024.54 1024.52 1024.52 1024.53 1024.56 1024.59 1024.63 1024.68 1024.74 1024.80
1024.84 1024.92 1024.98 1025.03 1025.08 1025.12 1025.15 1025.17 1025.17 1025.16 1025.12 1025.07 1025.01 1024.96 1024.93 1024.93 1024.95 1025.00 1025.08 1025.17 1025.27 1025.36 1025.42 1025.46 1025.46 1025.43 1025.37 1025.29 1025.19 1025.09 1024.99 1024.90 1024.82 1024.76 1024.72 1024.68 1024.66 1024.66 1024.67 1024.69 1024.72 1024.77 1024.81
Thickness
5686 5686 5685 5683 5682 5681 5681 5680 5679 5677 5676 5675 5674 5672 5670 5669 5668 5667 5666 5665 5665 5665 5665 5664 5664 5664 5664 5665 5665 5665 5665 5665 5665 5665 5665 5667 5669 5670 5672 5673 5674 5676 5677
5681 5679 5678 5677 5676 5675 5674 5673 5672 5670 5669 5668 5666 5665 5663 5661 5660 5659 5658 5657 5657 5657 5656 5655 5655 5655 5656 5656 5657 5657 5656 5656 5657 5656 5656 5656 5659 5662 5664 5665 5666 5667 5669
5677 5675 5673 5670 5669 5668 5667 5666 5664 5663 5662 5661 5659 5658 5655 5653 5652 5650 5649 5648 5648 5648 5647 5647 5647 5647 5647 5647 5647 5648 5648 5648 5648 5649 5648 5648 5648 5650 5654 5656 5657 5659 5660
5673 5670 5667 5665 5663 5661 5660 5659 5657 5656 5654 5652 5650 5648 5645 5642 5641 5640 5639 5639 5639 5639 5638 5638 5638 5637 5637 5638 5638 5639 5640 5640 5640 5640 5641 5641 5642 5641 5643 5646 5648 5649 5651
5669 5665 5662 5659 5656 5653 5652 5651 5649 5647 5645 5644 5642 5639 5637 5634 5632 5631 5631 5630 5630 5629 5629 5629 5628 5628 5628 5629 5629 5630 5631 5631 5632 5632 5632 5633 5634 5635 5635 5635 5637 5639 5641
5664 5660 5656 5652 5648 5646 5643 5642 5640 5638 5636 5635 5633 5630 5628 5625 5624 5623 5621 5620 5620 5619 5619 5619 5619 5619 5619 5620 5620 5621 5622 5622 5623 5624 5625 5625 5626 5627 5627 5627 5628 5629 5630
5660 5655 5650 5645 5641 5638 5635 5634 5632 5628 5626 5625 5623 5621 5619 5617 5615 5613 5611 5610 5609 5609 5609 5609 5609 5609 5610 5611 5611 5612 5613 5614 5615 5615 5616 5618 5619 5620 5621 5621 5620 5620 5620
5656 5650 5645 5640 5635 5631 5628 5626 5623 5620 5618 5616 5614 5612 5611 5609 5607 5605 5603 5600 5599 5599 5599 5600 5600 5600 5601 5602 5602 5603 5603 5604 5606 5607 5608 5610 5612 5613 5614 5614 5614 5614 5612
5650 5645 5639 5634 5629 5624 5621 5618 5615 5612 5610 5608 5605 5603 5601 5600 5598 5596 5594 5592 5590 5590 5590 5590 5591 5591 5591 5592 5593 5593 5594 5595 5596 5598 5600 5602 5604 5606 5607 5608 5609 5608 5607
5645 5638 5633 5627 5621 5617 5613 5610 5607 5605 5602 5600 5597 5594 5591 5590 5588 5587 5585 5583 5582 5581 5581 5581 5581 5581 5581 5582 5583 5584 5585 5586 5587 5589 5591 5593 5595 5598 5599 5601 5601 5602 5602
5640 5633 5627 5621 5614 5610 5605 5602 5600 5597 5593 5590 5587 5584 5581 5580 5579 5577 5575 5574 5573 5572 5572 5572 5572 5572 5572 5573 5574 5574 5575 5577 5578 5580 5582 5584 5586 5588 5590 5592 5593 5594 5594
5633 5626 5620 5613 5607 5602 5598 5594 5592 5588 5584 5581 5578 5575 5572 5571 5569 5568 5566 5565 5564 5564 5563 5563 5562 5563 5563 5564 5564 5565 5566 5567 5569 5571 5573 5575 5578 5579 5580 5582 5584 5584 5585
5626 5619 5612 5606 5600 5595 5590 5586 5583 5579 5575 5572 5569 5566 5563 5561 5560 5558 5557 5556 5556 5555 5555 5554 5553 5553 5554 5555 5555 5556 5557 5558 5559 5561 5563 5565 5568 5569 5571 5572 5574 5575 5575
5620 5612 5605 5599 5593 5588 5583 5579 5575 5571 5567 5564 5560 5557 5555 5553 5551 5550 5548 5547 5547 5546 5546 5545 5545 5545 5545 5546 5547 5548 5548 5549 5550 5552 5554 5556 5558 5559 5561 5563 5563 5564 5564
5614 5606 5599 5591 5585 5580 5575 5571 5567 5564 5560 5556 5552 5549 5547 5545 5543 5542 5540 5539 5538 5538 5537 5537 5536 5536 5536 5537 5537 5539 5540 5540 5542 5544 5545 5547 5549 5551 5552 5554 5554 5555 5555
5609 5601 5594 5586 5579 5574 5569 5564 5560 5556 5553 5549 5545 5542 5540 5538 5535 5534 5532 5531 5530 5530 5529 5528 5528 5528 5528 5528 5529 5530 5530 5531 5533 5535 5536 5538 5540 5542 5544 5545 5546 5547 5548
5604 5597 5589 5581 5575 5569 5563 5558 5554 5550 5546 5542 5539 5536 5534 5531 5528 5527 5525 5523 5522 5521 5520 5520 5520 5520 5520 5520 5521 5522 5522 5523 5524 5526 5528 5530 5532 5534 5536 5537 5538 5539 5540
5599 5591 5583 5575 5569 5563 5557 5552 5548 5544 5540 5537 5534 5531 5528 5525 5522 5520 5518 5516 5515 5514 5513 5512 5513 5513 5513 5514 5514 5515 5515 5516 5517 5518 5520 5522 5525 5528 5530 5531 5532 5533 5534
5594 5586 5578 5570 5563 5558 5552 5547 5542 5538 5535 5532 5529 5526 5523 5520 5517 5515 5512 5510 5509 5508 5507 5507 5507 5507 5507 5508 5509 5509 5510 5510 5510 5512 5514 5516 5519 5521 5524 5526 5527 5527 5528
5587 5580 5572 5565 5559 5553 5548 5543 5538 5534 5531 5528 5524 5521 5518 5516 5513 5510 5508 5506 5505 5503 5502 5502 5501 5502 5502 5503 5504 5505 5505 5505 5506 5507 5509 5511 5513 5516 5519 5521 5522 5523 5522
5582 5575 5568 5561 5554 5549 5544 5539 5535 5531 5528 5524 5521 5517 5514 5512 5509 5507 5505 5503 5501 5499 5498 5498 5497 5498 5498 5500 5501 5502 5502 5502 5503 5504 5506 5508 5510 5513 5515 5517 5518 5519 5519
5576 5570 5563 5556 5550 5545 5541 5536 5531 5528 5525 5521 5517 5514 5511 5509 5507 5504 5501 5499 5498 5496 5495 5495 5495 5495 5496 5498 5499 5500 5501 5501 5502 5502 5504 5505 5508 5511 5513 5514 5515 5516 5517
5572 5566 5560 5553 5547 5542 5539 5534 5530 5526 5523 5519 5515 5512 5509 5507 5504 5502 5499 5497 5495 5494 5493 5493 5493 5494 5495 5496 5497 5499 5500 5501 5502 5503 5504 5506 5508 5510 5512 5513 5514 5516 5516
5568 5563 5557 5551 5545 5541 5537 5533 5529 5525 5521 5517 5514 5511 5508 5505 5503 5500 5498 5497 5495 5495 5495 5494 5494 5494 5495 5496 5498 5499 5500 5502 5503 5504 5505 5507 5509 5510 5512 5512 5513 5514 5515
5566 5561 5556 5550 5545 5540 5536 5532 5528 5524 5520 5517 5513 5510 5508 5505 5503 5501 5498 5498 5497 5496 5497 5497 5496 5496 5498 5498 5499 5500 5502 5503 5504 5506 5508 5510 5511 5512 5513 5513 5514 5515 5516
5565 5559 5554 5549 5544 5540 5536 5532 5528 5524 5521 5517 5514 5511 5509 5506 5504 5503 5502 5501 5501 5502 5501 5501 5500 5501 5501 5503 5504 5505 5506 5507 5508 5509 5510 5511 5512 5513 5514 5515 5516 5518 5518